Location: Newark
(41.2353°N, 79.5361°W)
Time: 03:05:16
(UTC+00:00)

ISS - Visible Passes

Search period start: 27 January 2020 00:00
Search period end: 06 February 2020 00:00
Orbit: 416 x 423 km, 51.6° (Epoch: 27 January)

Date Brightness Start Highest point End Pass type
(mag) Time Alt. Az. Time Alt. Az. Time Alt. Az.
28 Jan -1.1 00:30:10 10° NW 00:31:11 13° NNW 00:31:11 13° NNW visible
28 Jan -1.5 23:42:14 10° NW 23:44:16 15° N 23:45:37 12° NNE visible
29 Jan -1.6 22:54:13 10° NW 22:56:29 17° NNW 22:58:45 10° NNE visible
30 Jan -1.1 00:32:11 10° NNW 00:32:59 13° NNW 00:32:59 13° NNW visible
30 Jan -1.5 23:44:33 10° NNW 23:46:30 14° N 23:47:24 13° NNE visible
01 Feb -1.3 00:33:43 10° NW 00:34:48 16° NNW 00:34:48 16° NNW visible
01 Feb -1.9 23:46:14 10° NNW 23:48:38 18° NNE 23:49:17 17° NNE visible
02 Feb -1.7 22:58:42 10° NNW 23:00:49 15° N 23:02:56 10° NE visible
03 Feb -1.9 00:35:06 10° NW 00:36:47 24° NNW 00:36:47 24° NNW visible
03 Feb -2.6 23:47:37 10° NW 23:50:37 28° NNE 23:51:24 25° NE visible
04 Feb -0.2 01:24:17 10° WNW 01:24:22 11° WNW 01:24:22 11° WNW visible
05 Feb -2.8 00:36:35 10° NW 00:39:06 46° WNW 00:39:06 46° WNW visible
05 Feb -3.7 23:48:59 10° NW 23:52:21 61° NNE 23:53:58 27° ESE visible
